Вернуться в каталог

CZ-4C DEB

АктивенLEO
NORAD 43627·DEBRIS·🇨🇳 China

Запущен Nov 20, 2013 с Taiyuan Satellite Launch Center

Loading…

Ближайшие Пролёты (ближайшие 24 часа)

TLE

СвежийSource: Space-Track

Эпоха: Sep 14, 2026, 23:26 UTC

1 43627U 13065D   26257.97685847  .00009711  00000-0  32569-2 0  9998
2 43627 100.5831 156.1212 0109778 151.5249 209.1986 14.34151796410684

Отслеживайте CZ-4C DEB в реальном времени с AllMySat

Download on the App Store